User: anonymous   Login
Location: Eymir
(36.7333°N, 29.7833°E)
Time: 23:15:59
(UTC+00:00)
Language:

ATLAS 2AS CENTAUR R/B - Orbit

View from above orbital plane
View from above orbital plane
View from above satellite
View from above satellite

Ground track
Ground track

The orbit is defined by the following mean orbital elements,

1 28096U          26064.71916830 +.00000000 +00000-0 +93936-4 0 00005
2 28096  63.6797 296.3499 0073477 118.0488 242.7995 13.41062478    09
Epoch (UTC): 05 March 2026 17:15:36
Eccentricity: 0.0073477
inclination: 63.6797°
perigee height: 1050 km
apogee height: 1160 km
right ascension of ascending node: 296.3499°
argument of perigee: 118.0488°
revolutions per day: 13.41062478
mean anomaly at epoch: 242.7995°

The dashed part of the orbit path shows where the satellite is in the earth's shadow,  

DLR